Location: Sobotiste
(48.7170°N, 17.4000°E)
Time: 08:21:01
(UTC+01:00)

Amateur Radio Satellites - All Passes

Search period start: 16 December 2017 07:51
Search period end: 17 December 2017 07:51
Location: Sobotiste, 48.7170°N, 17.4000°E

Satellite Date Start Highest point End Downlink Frequencies (MHz)
Time Altitude Azimuth
SEEDS 16 Dec 07:51:58 07:56:04 48° 289° (WNW) 08:00:08 437.485
ZACube-1 16 Dec 08:02:32 08:06:53 70° 101° (ESE) 08:11:19 437.345
NO-84 16 Dec 08:03:31 08:06:32 38° 343° (NNW) 08:09:48 435.350 FM
FO-29 16 Dec 08:04:43 08:12:17 52° 262° (W) 08:19:53 435.910
AAUSAT CUBESAT 2 16 Dec 08:06:21 08:10:32 73° 285° (WNW) 08:14:39 437.432
STRAND 1 16 Dec 08:07:19 08:09:31 13° 274° (W) 08:11:43 437.568
O/OREOS (USA 219) 16 Dec 08:08:54 08:13:28 75° 113° (ESE) 08:18:03 437.305
XW-2A 16 Dec 08:15:40 08:18:59 46° 288° (WNW) 08:22:18 145.665 - 145.685
CUTE 1.7 + AOD 2 16 Dec 08:18:34 08:21:39 19° 298° (WNW) 08:24:41 437.475
Oscar 11 16 Dec 08:19:46 08:24:06 61° 101° (E) 08:28:24 .
TIGRISAT 16 Dec 08:29:02 08:33:15 62° 73° (ENE) 08:37:27 435.000
UNISAT 6 16 Dec 08:32:40 08:36:57 73° 73° (ENE) 08:41:12 437.425
AO-73 16 Dec 08:35:40 08:39:59 63° 287° (WNW) 08:44:22 145.935
HO-68 16 Dec 08:38:31 08:44:50 35° 303° (WNW) 08:51:09 435.675
PRISM 16 Dec 08:45:05 08:48:47 32° 67° (ENE) 08:52:32 437.425
Max Valier Satellite 16 Dec 08:46:58 08:49:29 17° 91° (E) 08:51:59 145.860
DELFI C3 16 Dec 08:54:38 08:58:08 30° 95° (E) 09:01:36 145.870
EO-88 16 Dec 09:11:12 09:14:05 21° 93° (E) 09:16:56 145.990 - 145.960
AIST 2D 16 Dec 09:16:30 09:19:14 22° 66° (ENE) 09:22:00 435.315
POLYITAN 1 16 Dec 09:18:37 09:19:58 11° 56° (ENE) 09:21:19 437.675
UWE-3 16 Dec 09:18:38 09:21:00 15° 301° (WNW) 09:23:25 435.000/436.395/437.385
ZACube-1 16 Dec 09:40:03 09:42:42 16° 300° (WNW) 09:45:22 437.345
NO-84 16 Dec 09:41:24 09:44:24 28° 5° (N) 09:47:37 435.350 FM
QB50P2 16 Dec 09:42:23 09:45:30 21° 62° (ENE) 09:48:37 145.880/145.840
DUCHIFAT 1 16 Dec 09:45:41 09:48:14 16° 60° (ENE) 09:50:47 145.980
O/OREOS (USA 219) 16 Dec 09:50:11 09:53:25 19° 314° (NW) 09:56:40 437.305
Oscar 11 16 Dec 09:56:54 09:59:49 18° 299° (WNW) 10:02:43 .
FO-29 16 Dec 09:57:22 09:59:03 11° 283° (WNW) 10:00:45 435.910
TIGRISAT 16 Dec 10:07:52 10:10:21 15° 271° (W) 10:12:51 435.000
NANOSAT C BR1 16 Dec 10:11:39 10:15:19 31° 66° (ENE) 10:19:00 145.865
UNISAT 6 16 Dec 10:12:14 10:14:10 13° 272° (W) 10:16:07 437.425
Max Valier Satellite 16 Dec 10:19:57 10:23:30 42° 289° (WNW) 10:27:02 145.860
PRISM 16 Dec 10:20:30 10:24:05 27° 265° (W) 10:27:40 437.425
EO-79 16 Dec 10:27:35 10:31:38 49° 71° (ENE) 10:35:41 145.935-145.965
DELFI C3 16 Dec 10:29:27 10:32:48 27° 294° (WNW) 10:36:08 145.870
ISS 16 Dec 10:39:35 10:42:01 19° 140° (SE) 10:44:26 437.550
ESTCUBE 1 16 Dec 10:40:36 10:44:27 26° 94° (E) 10:48:16 437.505/2401.250
EO-88 16 Dec 10:44:28 10:47:47 32° 291° (WNW) 10:51:05 145.990 - 145.960
Oscar 19 16 Dec 10:48:53 10:52:00 16° 55° (NE) 10:55:07 437.125/150
AIST 2D 16 Dec 10:49:07 10:52:15 30° 264° (W) 10:55:26 435.315
POLYITAN 1 16 Dec 10:50:52 10:55:03 84° 74° (ENE) 10:59:16 437.675
SPROUT 16 Dec 11:01:47 11:02:43 11° 87° (E) 11:03:39 437.525
AO-91 16 Dec 11:09:31 11:12:36 18° 63° (ENE) 11:15:32 145.960
LO-87 16 Dec 11:09:37 11:13:10 68° 102° (ESE) 11:16:42 145.935 - 145.965
AO-7 16 Dec 11:12:48 11:16:40 14° 32° (NNE) 11:20:33 .
QB50P2 16 Dec 11:16:57 11:20:59 47° 261° (W) 11:25:04 145.880/145.840
NO-84 16 Dec 11:18:37 11:22:08 56° 24° (NNE) 11:25:56 435.350 FM
DUCHIFAT 1 16 Dec 11:19:19 11:23:26 63° 258° (WSW) 11:27:35 145.980
nSIGHT-1 16 Dec 11:27:11 11:30:20 51° 151° (SSE) 11:33:28 .
YUBILEINY 16 Dec 11:37:58 11:44:13 21° 53° (NE) 11:50:25 435.215
Gurwin Techsat 1B 16 Dec 11:41:26 11:46:04 32° 63° (ENE) 11:50:44 435.225
NANOSAT C BR1 16 Dec 11:47:22 11:51:00 29° 265° (W) 11:54:41 145.865
BUGSAT 1 16 Dec 11:53:32 11:57:34 77° 74° (ENE) 12:01:36 437.445
EO-79 16 Dec 12:04:43 12:07:39 18° 269° (W) 12:10:37 145.935-145.965
VELOX 1 16 Dec 12:07:02 12:10:56 30° 95° (E) 12:14:48 145.980
ISS 16 Dec 12:14:50 12:18:08 86° 154° (SSE) 12:21:26 437.550
ESTCUBE 1 16 Dec 12:17:07 12:21:22 39° 292° (WNW) 12:25:34 437.505/2401.250
Oscar 19 16 Dec 12:25:27 12:30:36 90° 100° (E) 12:35:49 437.125/150
POLYITAN 1 16 Dec 12:30:24 12:31:26 11° 273° (W) 12:32:27 437.675
SPROUT 16 Dec 12:34:57 12:39:14 87° 285° (WNW) 12:43:29 437.525
AO-91 16 Dec 12:44:02 12:48:46 62° 258° (WSW) 12:53:02 145.960
LO-87 16 Dec 12:44:51 12:46:04 11° 300° (WNW) 12:47:16 145.935 - 145.965
M-CUBED/EXP-1 PRIME 16 Dec 12:45:11 12:48:15 18° 52° (NE) 12:51:22 437.505
NO-84 16 Dec 12:55:57 12:59:20 33° 222° (SW) 13:02:57 435.350 FM
DX 1 16 Dec 12:57:50 13:01:18 23° 93° (E) 13:04:44 434.975-435.025
AO-7 16 Dec 12:59:39 13:07:17 42° 56° (NE) 13:14:57 .
nSIGHT-1 16 Dec 13:03:23 13:06:34 54° 351° (N) 13:09:44 .
Gurwin Techsat 1B 16 Dec 13:20:49 13:25:53 44° 262° (W) 13:30:58 435.225
50 SAT 16 Dec 13:21:13 13:24:10 35° 98° (E) 13:27:05 437.505
BUGSAT 1 16 Dec 13:32:15 13:33:27 11° 272° (W) 13:34:38 437.445
YUBILEINY 16 Dec 13:33:54 13:42:47 76° 78° (ENE) 13:51:34 435.215
RS-15 16 Dec 13:37:29 13:48:56 48° 111° (ESE) 14:00:16 29.354- 29.394
ITAMSAT 1 16 Dec 13:41:52 13:46:28 33° 63° (ENE) 13:51:05 435.822/435.867
VELOX 1 16 Dec 13:43:25 13:47:24 33° 294° (WNW) 13:51:19 145.980
ISS 16 Dec 13:51:35 13:54:48 48° 358° (N) 13:58:01 437.550
Oscar 19 16 Dec 14:08:06 14:10:40 14° 273° (W) 14:13:16 437.125/150
DOVE 4 16 Dec 14:09:38 14:12:16 14° 56° (ENE) 14:14:50 437.250
SPROUT 16 Dec 14:12:49 14:14:26 12° 303° (WNW) 14:16:03 437.525
SO-50 16 Dec 14:13:13 14:16:38 22° 114° (ESE) 14:20:06 436.795
UKube-1 16 Dec 14:13:55 14:18:15 82° 104° (ESE) 14:22:33 .
M-CUBED/EXP-1 PRIME 16 Dec 14:17:37 14:22:02 76° 252° (WSW) 14:26:41 437.505
MOZHAYETS 4 16 Dec 14:18:10 14:21:58 25° 93° (E) 14:25:45
DX 1 16 Dec 14:33:32 14:37:39 42° 292° (WNW) 14:41:44 434.975-435.025
nSIGHT-1 16 Dec 14:39:52 14:43:03 55° 10° (N) 14:46:14 .
AO-7 16 Dec 14:51:44 14:59:52 57° 257° (WSW) 15:08:04 .
BEESAT 16 Dec 14:53:56 14:58:19 35° 97° (E) 15:02:40 436.000
50 SAT 16 Dec 14:53:57 14:55:50 15° 296° (WNW) 14:57:42 437.505
ITAMSAT 1 16 Dec 15:20:57 15:25:51 41° 262° (W) 15:30:46 435.822/435.867
CUTE-I 16 Dec 15:22:34 15:25:18 14° 52° (NE) 15:28:03 437.470
ITUPSAT 1 16 Dec 15:23:16 15:28:02 64° 102° (ESE) 15:32:46 437.325
ISS 16 Dec 15:28:14 15:31:32 75° 18° (NNE) 15:34:49 437.550
YUBILEINY 16 Dec 15:31:40 15:38:44 28° 281° (W) 15:45:45 435.215
LilacSat-2 16 Dec 15:32:19 15:33:47 12° 59° (ENE) 15:35:14 437.200
HO-68 16 Dec 15:38:50 15:43:12 17° 45° (NE) 15:47:33 435.675
XW-2D 16 Dec 15:43:24 15:45:31 14° 61° (ENE) 15:47:39 145.860 - 145.880
DOVE 4 16 Dec 15:43:57 15:49:11 79° 75° (ENE) 15:54:15 437.250
CUBESAT XI-V 16 Dec 15:45:42 15:50:15 45° 98° (E) 15:54:45 437.345
KAITUO 1B 16 Dec 15:47:47 15:49:05 12° 59° (ENE) 15:50:24 145.475/437.950
RS-15 16 Dec 15:48:46 16:01:06 69° 317° (NW) 16:13:13 29.354- 29.394
UKube-1 16 Dec 15:51:27 15:53:40 14° 303° (WNW) 15:55:53 .
SO-50 16 Dec 15:52:18 15:56:43 59° 314° (NW) 16:01:14 436.795
MOZHAYETS 4 16 Dec 15:54:54 15:59:17 43° 291° (WNW) 16:03:40
KKS-1 16 Dec 15:56:36 15:58:08 12° 87° (E) 15:59:40 437.445
XW-2B 16 Dec 15:58:36 16:01:21 19° 64° (ENE) 16:04:08 145.730 - 145.750
XW-2F 16 Dec 16:08:42 16:11:43 23° 65° (ENE) 16:14:46 145.980 - 146.000
nSIGHT-1 16 Dec 16:16:08 16:19:16 48° 210° (SSW) 16:22:23 .
XW-2C 16 Dec 16:25:13 16:28:42 36° 69° (ENE) 16:32:14 145.795 - 145.815
BEESAT 16 Dec 16:31:48 16:36:02 32° 295° (WNW) 16:40:16 436.000
STARS 16 Dec 16:34:25 16:35:51 11° 87° (E) 16:37:15 437.465
O/OREOS (USA 219) 16 Dec 16:36:02 16:40:16 37° 55° (NE) 16:44:26 437.305
AO-7 16 Dec 16:51:59 16:54:33 12° 279° (W) 16:57:07 .
CUTE-I 16 Dec 16:59:07 17:04:28 73° 72° (ENE) 17:09:50 437.470
ITUPSAT 1 16 Dec 17:02:00 17:05:25 20° 301° (WNW) 17:08:50 437.325
LilacSat-2 16 Dec 17:03:38 17:07:28 78° 258° (WSW) 17:11:20 437.200
PCSat 16 Dec 17:04:16 17:07:53 18° 106° (ESE) 17:11:29 145.827
ISS 16 Dec 17:04:57 17:07:48 27° 217° (SW) 17:10:39 437.550
UWE-3 16 Dec 17:07:59 17:09:38 12° 58° (ENE) 17:11:17 435.000/436.395/437.385
CUBEBUG 2 16 Dec 17:10:35 17:13:42 21° 63° (ENE) 17:16:49 437.445
NUDT-PHONESAT 16 Dec 17:11:38 17:15:19 82° 76° (ENE) 17:19:04 437.300
SEEDS 16 Dec 17:12:12 17:15:30 22° 64° (ENE) 17:18:49 437.485
XW-2D 16 Dec 17:15:29 17:19:14 60° 259° (W) 17:23:02 145.860 - 145.880
KAITUO 1B 16 Dec 17:18:43 17:22:28 78° 257° (WSW) 17:26:17 145.475/437.950
HO-68 16 Dec 17:22:34 17:29:39 64° 67° (ENE) 17:36:45 435.675
CUBESAT XI-V 16 Dec 17:23:30 17:27:23 26° 297° (WNW) 17:31:15 437.345
DOVE 4 16 Dec 17:24:08 17:27:22 16° 272° (W) 17:30:34 437.250
AAUSAT CUBESAT 2 16 Dec 17:26:20 17:28:44 15° 60° (ENE) 17:31:08 437.432
ZACube-1 16 Dec 17:29:16 17:30:25 11° 56° (ENE) 17:31:36 437.345
KKS-1 16 Dec 17:30:52 17:35:19 86° 287° (WNW) 17:39:45 437.445
XW-2B 16 Dec 17:31:40 17:35:15 41° 262° (W) 17:38:54 145.730 - 145.750
SO-50 16 Dec 17:35:07 17:38:07 17° 336° (NNW) 17:41:09 436.795
CUTE 1.7 + AOD 2 16 Dec 17:37:49 17:42:00 60° 73° (ENE) 17:46:14 437.475
XW-2F 16 Dec 17:42:14 17:45:40 33° 264° (W) 17:49:09 145.980 - 146.000
Oscar 11 16 Dec 17:45:51 17:46:48 11° 55° (NE) 17:47:45 .
AO-73 16 Dec 17:59:59 18:02:53 19° 62° (ENE) 18:05:50 145.935
XW-2C 16 Dec 18:00:05 18:02:59 21° 267° (W) 18:05:56 145.795 - 145.815
RS-15 16 Dec 18:04:56 18:16:11 39° 348° (NNW) 18:27:05 29.354- 29.394
STARS 16 Dec 18:08:24 18:12:48 86° 283° (WNW) 18:17:09 437.465
O/OREOS (USA 219) 16 Dec 18:15:41 18:19:33 29° 255° (WSW) 18:23:24 437.305
STRAND 1 16 Dec 18:31:26 18:35:35 24° 93° (E) 18:39:42 437.568
UWE-3 16 Dec 18:41:19 18:45:28 86° 258° (WSW) 18:49:38 435.000/436.395/437.385
CUTE-I 16 Dec 18:41:26 18:45:05 18° 271° (W) 18:48:45 437.470
PCSat 16 Dec 18:45:11 18:50:36 82° 305° (NW) 18:56:05 145.827
CUBEBUG 2 16 Dec 18:46:04 18:50:04 44° 262° (W) 18:54:04 437.445
SEEDS 16 Dec 18:46:54 18:50:56 43° 262° (W) 18:55:01 437.485
XW-2A 16 Dec 18:49:41 18:53:02 80° 257° (WSW) 18:56:26 145.665 - 145.685
AAUSAT CUBESAT 2 16 Dec 18:59:30 19:03:40 69° 258° (WSW) 19:07:52 437.432
ZACube-1 16 Dec 19:01:52 19:06:00 84° 75° (ENE) 19:10:12 437.345
KKS-1 16 Dec 19:09:15 19:11:11 13° 304° (NW) 19:13:07 437.445
HO-68 16 Dec 19:11:41 19:17:51 30° 267° (W) 19:24:03 435.675
FO-29 16 Dec 19:11:43 19:17:09 24° 87° (E) 19:22:05 435.910
BEESAT 3 16 Dec 19:14:59 19:18:36 34° 119° (ESE) 19:22:16 437.485
CUTE 1.7 + AOD 2 16 Dec 19:15:38 19:18:14 16° 271° (W) 19:20:52 437.475
Oscar 11 16 Dec 19:17:51 19:22:09 74° 74° (ENE) 19:26:29 .
SO-50 16 Dec 19:19:10 19:20:27 11° 1° (N) 19:21:45 436.795
Max Valier Satellite 16 Dec 19:29:56 19:31:58 14° 62° (ENE) 19:34:02 145.860
AO-73 16 Dec 19:34:47 19:38:47 50° 261° (W) 19:42:52 145.935
DELFI C3 16 Dec 19:43:12 19:46:41 29° 67° (ENE) 19:50:10 145.870
STARS 16 Dec 19:46:38 19:48:26 12° 304° (NW) 19:50:14 437.465
EO-88 16 Dec 19:52:40 19:55:10 18° 63° (ENE) 19:57:40 145.990 - 145.960
BEESAT 2 16 Dec 19:59:55 20:03:26 30° 118° (ESE) 20:07:00 435.950
STRAND 1 16 Dec 20:10:06 20:15:03 51° 291° (WNW) 20:19:57 437.568
RS-15 16 Dec 20:21:02 20:32:25 43° 21° (NNE) 20:43:16 29.354- 29.394
UNISAT 6 16 Dec 20:22:04 20:23:35 12° 87° (E) 20:25:06 437.425
PCSat 16 Dec 20:30:40 20:34:50 22° 327° (NNW) 20:39:03 145.827
ZACube-1 16 Dec 20:42:08 20:42:55 10° 274° (W) 20:43:42 437.345
BEESAT 3 16 Dec 20:52:29 20:56:09 33° 319° (NW) 20:59:49 437.485
FO-29 16 Dec 20:55:58 21:03:00 71° 290° (WNW) 21:09:08 435.910
Oscar 11 16 Dec 20:56:46 20:58:49 13° 273° (W) 21:00:52 .
SO-50 16 Dec 20:59:32 21:02:44 18° 26° (NNE) 21:05:59 436.795
Max Valier Satellite 16 Dec 21:01:48 21:05:23 54° 260° (W) 21:09:01 145.860
AO-85 16 Dec 21:05:10 21:08:44 34° 118° (ESE) 21:12:30 145.980
DELFI C3 16 Dec 21:17:56 21:21:23 28° 265° (W) 21:24:52 145.870
EO-88 16 Dec 21:25:02 21:28:30 42° 262° (W) 21:32:01 145.990 - 145.960
BEESAT 2 16 Dec 21:37:16 21:41:04 38° 317° (NW) 21:44:54 435.950
ESTCUBE 1 16 Dec 21:43:28 21:47:38 38° 67° (ENE) 21:51:51 437.505/2401.250
LO-87 16 Dec 21:48:47 21:52:12 47° 72° (ENE) 21:55:37 145.935 - 145.965
TIGRISAT 16 Dec 21:52:37 21:56:59 82° 105° (ESE) 22:01:25 435.000
UNISAT 6 16 Dec 21:56:30 22:00:52 85° 286° (WNW) 22:05:19 437.425
PRISM 16 Dec 21:57:15 22:00:51 29° 96° (E) 22:04:26 437.425
SPROUT 16 Dec 21:57:57 22:00:21 15° 59° (ENE) 22:02:45 437.525
AIST 2D 16 Dec 22:10:27 22:12:36 15° 91° (E) 22:14:46 435.315
PCSat 16 Dec 22:18:46 22:20:24 11° 353° (N) 22:22:02 145.827
BEESAT 3 16 Dec 22:33:45 22:34:49 11° 341° (NNW) 22:35:54 437.485
POLYITAN 1 16 Dec 22:34:14 22:35:01 10° 87° (E) 22:35:47 437.675
RS-15 16 Dec 22:34:35 22:46:38 87° 51° (NE) 22:57:57 29.354- 29.394
SO-50 16 Dec 22:39:26 22:44:04 64° 47° (NE) 22:48:45 436.795
FO-29 16 Dec 22:42:21 22:46:42 18° 313° (NW) 22:50:48 435.910
AO-85 16 Dec 22:45:25 22:49:06 34° 320° (NW) 22:53:03 145.980
QB50P2 16 Dec 22:58:05 23:01:18 21° 92° (E) 23:04:31 145.880/145.840
DUCHIFAT 1 16 Dec 23:00:13 23:02:43 15° 90° (E) 23:05:14 145.980
VELOX 1 16 Dec 23:07:30 23:11:42 43° 69° (ENE) 23:15:55 145.980
BEESAT 2 16 Dec 23:18:16 23:19:52 12° 339° (NNW) 23:21:29 435.950
ESTCUBE 1 16 Dec 23:20:40 23:24:31 27° 266° (W) 23:28:25 437.505/2401.250
LO-87 16 Dec 23:23:59 23:25:52 14° 270° (W) 23:27:45 145.935 - 145.965
NANOSAT C BR1 16 Dec 23:26:59 23:30:46 32° 96° (E) 23:34:33 145.865
FALCONSAT 3 16 Dec 23:28:02 23:28:44 10° 183° (S) 23:29:25 435.103
TIGRISAT 16 Dec 23:30:52 23:33:07 14° 302° (WNW) 23:35:21 435.000
SPROUT 16 Dec 23:31:29 23:35:43 72° 257° (WSW) 23:39:58 437.525
PRISM 16 Dec 23:32:30 23:36:06 30° 294° (WNW) 23:39:39 437.425
UNISAT 6 16 Dec 23:35:14 23:36:55 12° 303° (WNW) 23:38:36 437.425
UKube-1 16 Dec 23:37:56 23:40:29 15° 58° (ENE) 23:43:01 .
AIST 2D 16 Dec 23:42:36 23:46:00 42° 288° (WNW) 23:49:22 435.315
EO-79 16 Dec 23:43:35 23:47:44 53° 100° (E) 23:51:51 145.935-145.965
50 SAT 16 Dec 23:50:55 23:53:23 21° 67° (ENE) 23:55:52 437.505
DX 1 16 Dec 23:56:38 00:00:32 33° 66° (ENE) 00:04:29 434.975-435.025
PCSat 17 Dec 00:03:21 00:06:18 14° 20° (NNE) 00:09:15 145.827
POLYITAN 1 17 Dec 00:07:10 00:11:24 88° 285° (WNW) 00:15:39 437.675
SO-50 17 Dec 00:20:36 00:24:09 22° 246° (WSW) 00:27:44 436.795
AO-85 17 Dec 00:29:01 00:30:49 12° 344° (NNW) 00:32:40 145.980
BEESAT 17 Dec 00:30:31 00:31:36 11° 52° (NE) 00:32:40 436.000
AO-91 17 Dec 00:31:24 00:33:17 14° 90° (E) 00:35:08 145.960
QB50P2 17 Dec 00:33:16 00:37:17 44° 290° (WNW) 00:41:18 145.880/145.840
Oscar 19 17 Dec 00:33:34 00:37:44 24° 92° (E) 00:41:52 437.125/150
DUCHIFAT 1 17 Dec 00:34:38 00:38:46 60° 288° (WNW) 00:42:54 145.980
VELOX 1 17 Dec 00:44:44 00:48:18 23° 267° (W) 00:51:54 145.980
YUBILEINY 17 Dec 00:47:11 00:52:32 18° 73° (ENE) 00:57:53 435.215
RS-15 17 Dec 00:48:03 00:57:39 31° 257° (WSW) 01:06:54 29.354- 29.394
ITUPSAT 1 17 Dec 00:57:56 01:01:05 18° 58° (ENE) 01:04:15 437.325
NANOSAT C BR1 17 Dec 01:02:47 01:06:24 29° 294° (WNW) 01:10:02 145.865
BUGSAT 1 17 Dec 01:06:16 01:10:19 77° 103° (ESE) 01:14:23 437.445
UKube-1 17 Dec 01:11:39 01:15:57 73° 256° (WSW) 01:20:18 .
CUBESAT XI-V 17 Dec 01:19:15 01:20:29 11° 54° (NE) 01:21:43 437.345
EO-79 17 Dec 01:20:10 01:23:08 19° 298° (WNW) 01:26:05 145.935-145.965
50 SAT 17 Dec 01:22:36 01:25:13 24° 264° (W) 01:27:52 437.505
MOZHAYETS 4 17 Dec 01:23:29 01:27:38 36° 67° (ENE) 01:31:50
Gurwin Techsat 1B 17 Dec 01:32:36 01:37:50 55° 101° (E) 01:43:02 435.225
DX 1 17 Dec 01:32:53 01:36:44 30° 264° (W) 01:40:36 434.975-435.025
POLYITAN 1 17 Dec 01:44:53 01:46:31 12° 303° (WNW) 01:48:10 437.675
PCSat 17 Dec 01:46:08 01:51:14 39° 44° (NE) 01:56:19 145.827
BEESAT 3 17 Dec 01:50:50 01:53:24 16° 29° (NNE) 01:55:57 437.485
BEESAT 17 Dec 02:03:45 02:08:26 64° 71° (ENE) 02:13:10 436.000
AO-91 17 Dec 02:06:47 02:10:04 40° 290° (WNW) 02:13:15 145.960
AO-85 17 Dec 02:12:04 02:13:14 11° 10° (N) 02:14:25 145.980
Oscar 19 17 Dec 02:12:17 02:17:22 55° 291° (WNW) 02:22:26 437.125/150
ITUPSAT 1 17 Dec 02:33:39 02:38:23 72° 256° (WSW) 02:43:10 437.325
BEESAT 2 17 Dec 02:36:23 02:38:53 16° 27° (NNE) 02:41:22 435.950
YUBILEINY 17 Dec 02:38:59 02:47:46 76° 95° (E) 02:56:37 435.215
BUGSAT 1 17 Dec 02:43:12 02:45:08 13° 301° (WNW) 02:47:04 437.445
AO-7 17 Dec 02:48:39 02:56:28 41° 98° (E) 03:04:12 .
CUBESAT XI-V 17 Dec 02:52:19 02:56:57 67° 73° (ENE) 03:01:38 437.345
KKS-1 17 Dec 02:57:26 03:00:36 19° 60° (ENE) 03:03:46 437.445
MOZHAYETS 4 17 Dec 03:00:54 03:04:51 29° 265° (W) 03:08:51
Gurwin Techsat 1B 17 Dec 03:13:08 03:17:28 26° 300° (WNW) 03:21:48 435.225
M-CUBED/EXP-1 PRIME 17 Dec 03:26:39 03:31:00 44° 104° (ESE) 03:35:04 437.505
BEESAT 3 17 Dec 03:27:39 03:31:36 75° 50° (NE) 03:35:29 437.485
ITAMSAT 1 17 Dec 03:29:19 03:34:24 52° 101° (E) 03:39:25 435.822/435.867
PCSat 17 Dec 03:29:36 03:34:43 43° 245° (WSW) 03:39:48 145.827
STARS 17 Dec 03:33:47 03:36:48 18° 60° (ENE) 03:39:49 437.465
DOVE 4 17 Dec 03:40:40 03:43:09 15° 87° (E) 03:45:34 437.250
BEESAT 17 Dec 03:43:27 03:46:39 18° 270° (W) 03:49:52 436.000
AO-85 17 Dec 03:51:32 03:55:15 23° 33° (NNE) 03:59:12 145.980
Oscar 19 17 Dec 03:54:41 03:55:35 10° 311° (NW) 03:56:29 437.125/150
BEESAT 2 17 Dec 04:13:19 04:17:22 65° 48° (NE) 04:21:20 435.950
CUBESAT XI-V 17 Dec 04:31:52 04:34:48 16° 271° (W) 04:37:47 437.345
KKS-1 17 Dec 04:32:22 04:36:46 58° 258° (WSW) 04:41:12 437.445
YUBILEINY 17 Dec 04:38:00 04:45:31 30° 299° (WNW) 04:53:05 435.215
AO-7 17 Dec 04:41:22 04:49:31 57° 299° (WNW) 04:57:37 .
XW-2D 17 Dec 04:45:49 04:47:06 11° 88° (E) 04:48:23 145.860 - 145.880
XW-2B 17 Dec 05:00:49 05:03:15 16° 90° (E) 05:05:40 145.730 - 145.750
M-CUBED/EXP-1 PRIME 17 Dec 05:01:21 05:05:07 26° 303° (WNW) 05:08:42 437.505
BEESAT 3 17 Dec 05:06:35 05:08:35 14° 249° (WSW) 05:10:33 437.485
STARS 17 Dec 05:08:23 05:12:44 59° 259° (WSW) 05:17:05 437.465
ITAMSAT 1 17 Dec 05:09:19 05:13:34 26° 299° (WNW) 05:17:49 435.822/435.867
XW-2F 17 Dec 05:10:24 05:13:12 19° 92° (E) 05:15:59 145.980 - 146.000
CUTE-I 17 Dec 05:12:54 05:16:55 21° 91° (E) 05:20:55 437.470
DOVE 4 17 Dec 05:16:55 05:21:25 66° 287° (WNW) 05:25:40 437.250
FO-29 17 Dec 05:27:23 05:33:12 24° 52° (NE) 05:38:55 435.910
XW-2C 17 Dec 05:27:37 05:31:04 31° 96° (E) 05:34:31 145.795 - 145.815
AO-85 17 Dec 05:31:28 05:36:12 85° 235° (SW) 05:41:18 145.980
NO-84 17 Dec 05:50:15 05:53:01 34° 139° (SE) 05:55:59 435.350 FM
STRAND 1 17 Dec 05:50:47 05:55:44 51° 69° (ENE) 06:00:41 437.568
BEESAT 2 17 Dec 05:52:04 05:54:37 16° 248° (WSW) 05:57:08 435.950
LilacSat-2 17 Dec 06:06:57 06:10:52 88° 276° (W) 06:14:44 437.200
NUDT-PHONESAT 17 Dec 06:11:17 06:15:02 66° 101° (E) 06:18:46 437.300
XW-2D 17 Dec 06:17:53 06:21:44 70° 286° (WNW) 06:25:33 145.860 - 145.880
KAITUO 1B 17 Dec 06:19:31 06:23:21 86° 103° (ESE) 06:27:09 145.475/437.950
SEEDS 17 Dec 06:26:48 06:30:17 24° 93° (E) 06:33:43 437.485
UWE-3 17 Dec 06:27:40 06:30:11 15° 89° (E) 06:32:42 435.000/436.395/437.385
CUBEBUG 2 17 Dec 06:32:26 06:36:06 27° 95° (E) 06:39:49 437.445
HO-68 17 Dec 06:33:31 06:40:24 47° 99° (E) 06:47:13 435.675
XW-2B 17 Dec 06:33:57 06:37:42 48° 288° (WNW) 06:41:24 145.730 - 145.750
AO-7 17 Dec 06:35:23 06:40:36 18° 322° (NW) 06:45:48 .
AAUSAT CUBESAT 2 17 Dec 06:38:47 06:41:06 14° 89° (E) 06:43:25 437.432
XW-2F 17 Dec 06:43:51 06:47:28 40° 290° (WNW) 06:51:03 145.980 - 146.000
ZACube-1 17 Dec 06:47:21 06:49:26 13° 88° (E) 06:51:31 437.345
CUTE-I 17 Dec 06:52:08 06:57:24 62° 290° (WNW) 07:02:38 437.470
O/OREOS (USA 219) 17 Dec 06:53:14 06:56:33 20° 101° (ESE) 06:59:50 437.305
CUTE 1.7 + AOD 2 17 Dec 06:54:14 06:58:33 72° 102° (ESE) 07:02:49 437.475
XW-2C 17 Dec 07:01:57 07:05:09 25° 294° (WNW) 07:08:20 145.795 - 145.815
Oscar 11 17 Dec 07:03:31 07:04:35 11° 86° (E) 07:05:40 .
FO-29 17 Dec 07:09:21 07:17:13 81° 72° (ENE) 07:24:59 435.910
AO-85 17 Dec 07:13:24 07:16:04 15° 250° (WSW) 07:18:47 145.980
AO-73 17 Dec 07:18:35 07:22:07 23° 93° (E) 07:25:41 145.935
TIGRISAT 17 Dec 07:20:39 07:22:59 15° 59° (ENE) 07:25:20 435.000
UNISAT 6 17 Dec 07:24:10 07:26:55 17° 60° (ENE) 07:29:40 437.425
NO-84 17 Dec 07:27:09 07:30:11 44° 340° (NNW) 07:33:28 435.350 FM
STRAND 1 17 Dec 07:31:02 07:35:11 25° 267° (W) 07:39:21 437.568
XW-2A 17 Dec 07:39:41 07:43:06 60° 101° (E) 07:46:30 145.665 - 145.685
LilacSat-2 17 Dec 07:43:40 07:44:27 11° 302° (WNW) 07:45:16 437.200
NUDT-PHONESAT 17 Dec 07:46:34 07:48:23 13° 300° (WNW) 07:50:11 437.300
